(62722) = 2000 TQ50

Discovered at Socorro on 2000-10-01 by LINEAR.

Orbit

Orbit type: Main Belt

Note: WebGL enabled browser required.

epoch2024-03-31.0
epoch JD2460400.5
perihelion date2022-05-21.98486
perihelion JD2459721.48486
argument of perihelion (°)202.99564
ascending node (°)77.73488
inclination (°)10.01840
eccentricity0.1223457
perihelion distance (AU)2.4121161
Tisserand w.r.t. Jupiter3.3
ΔV w.r.t. Earth (km/sec)10.2
semimajor axis (AU)2.7483669
mean anomaly (°)146.88290
mean daily motion (°/day)0.21631760
aphelion distance (AU)3.085
period (years)4.56
P-vector [x]0.18036901
P-vector [y]-0.87324437
P-vector [z]-0.45267128
Q-vector [x]0.96879780
Q-vector [y]0.23726177
Q-vector [z]-0.07167764
absolute magnitude15.05
phase slope0.15
uncertainty0
referenceMPEC 2024-C115
observations used1281
oppositions20
arc length (days)9006
first opposition used1999
last opposition used2024
residual rms (arc-secs)0.69
perturbers coarse indicatorM-v
perturbers precise indicator003Ek
first observation date used1999-06-15.0
last observation date used2024-02-10.0
computer nameMPCLINUX
JD of orbit computation2456966.828036
perihelion JD uncertainty (days)1.3191E-04
argument of perihelion uncertainty (°)3.9034E-05
ascending node uncertainty (°)2.8647E-05
inclination uncertainty (°)5.1624E-06
eccentricity uncertainty 3.8071E-08
perihelion distance uncertainty (AU)1.0406E-07
Minimum Orbit Intersection Distances (in AU)
for orbit epoch: 2460200.5, reference: E2024-CB5
Mercury1.95645
Venus1.69041
Earth1.40331
Mars0.95272
Jupiter2.02654
Saturn5.98235
Uranus15.5549
Neptune26.907

Observations

1304 total observations over interval: 1999 06 15.29178 – 2024 02 10.288053
These data are available for download (format description).

Date (UT) J2000 RA J2000 Dec Magn Location Ref
1999 06 15.29178 17 37 58.84 -25 16 46.1 18.7   704 – Lincoln Laboratory ETS, New Mexico MPS 52105
1999 06 15.30394 17 37 58.10 -25 16 49.5 18.8   704 – Lincoln Laboratory ETS, New Mexico MPS 52105
1999 06 15.31611 17 37 57.33 -25 16 52.6 18.5   704 – Lincoln Laboratory ETS, New Mexico MPS 52105
1999 06 15.32827 17 37 56.57 -25 16 56.1 19.1   704 – Lincoln Laboratory ETS, New Mexico MPS 52105
1999 06 15.34047 17 37 55.90 -25 16 58.2 19.1   704 – Lincoln Laboratory ETS, New Mexico MPS 52105
2000 10 01.32570 02 20 55.66 +01 10 31.9 19.0   704 – Lincoln Laboratory ETS, New Mexico MPS 21484
2000 10 01.34297 02 20 54.93 +01 10 28.1 19.4   704 – Lincoln Laboratory ETS, New Mexico MPS 21484
2000 10 01.35769 02 20 54.27 +01 10 25.0 19.7   704 – Lincoln Laboratory ETS, New Mexico MPS 21484
2000 10 01.365010 02 20 53.977 +01 10 23.06 19.25 V 645 – Apache Point-Sloan Digital Sky Survey MPS 79798
2000 10 01.368482 02 20 53.824 +01 10 22.29 20.15   645 – Apache Point-Sloan Digital Sky Survey MPS 79798
2000 10 01.37279 02 20 53.56 +01 10 21.8 19.2   704 – Lincoln Laboratory ETS, New Mexico MPS 21484
2000 10 01.38804 02 20 52.97 +01 10 18.2 19.2   704 – Lincoln Laboratory ETS, New Mexico MPS 21484
2000 10 02.34535 02 20 12.88 +01 06 47.9 19.0 R 699 – Lowell Observatory-LONEOS MPS 21484
2000 10 02.36693 02 20 11.92 +01 06 43.7   699 – Lowell Observatory-LONEOS MPS 21484
2000 10 02.38855 02 20 10.94 +01 06 38.5   699 – Lowell Observatory-LONEOS MPS 21484
2000 10 02.41014 02 20 09.97 +01 06 34.2   699 – Lowell Observatory-LONEOS MPS 21484
2000 10 29.23835 01 57 11.94 -00 12 20.1 18.4   704 – Lincoln Laboratory ETS, New Mexico MPS 21484
2000 10 29.25366 01 57 11.24 -00 12 21.5 18.7   704 – Lincoln Laboratory ETS, New Mexico MPS 21484
2000 10 29.28283 01 57 09.53 -00 12 24.2 18.9   704 – Lincoln Laboratory ETS, New Mexico MPS 21484
2000 10 29.29767 01 57 08.70 -00 12 26.3 18.5   704 – Lincoln Laboratory ETS, New Mexico MPS 21484
2000 11 03.22471 01 52 50.58 -00 18 51.2 18.1   704 – Lincoln Laboratory ETS, New Mexico MPS 21484
2000 11 03.23935 01 52 49.78 -00 18 51.3 18.2   704 – Lincoln Laboratory ETS, New Mexico MPS 21484
2000 11 03.25350 01 52 48.99 -00 18 51.1 18.6   704 – Lincoln Laboratory ETS, New Mexico MPS 21484
2000 11 03.26829 01 52 48.24 -00 18 52.4 18.6   704 – Lincoln Laboratory ETS, New Mexico MPS 21484
2001 12 18.30450 07 42 29.27 +27 49 22.4 20.3   644 – Palomar Mountain/NEAT MPS 52105
2001 12 18.31497 07 42 28.76 +27 49 25.4 19.8   644 – Palomar Mountain/NEAT MPS 52105
2001 12 18.32896 07 42 28.11 +27 49 30.0 19.9   644 – Palomar Mountain/NEAT MPS 52105
2002 01 08.32452 07 23 16.97 +29 31 51.7 19.2   704 – Lincoln Laboratory ETS, New Mexico MPS 52105
2002 01 08.34063 07 23 16.02 +29 31 56.7 19.3   704 – Lincoln Laboratory ETS, New Mexico MPS 52105
2002 01 08.35646 07 23 15.10 +29 31 59.3 19.3   704 – Lincoln Laboratory ETS, New Mexico MPS 52105
2002 01 08.37200 07 23 14.01 +29 32 04.1 19.5   704 – Lincoln Laboratory ETS, New Mexico MPS 52105
2003 03 03.37297 13 37 13.55 +04 33 27.3 18.8   704 – Lincoln Laboratory ETS, New Mexico MPS 73870
2003 03 03.40799 13 37 12.95 +04 33 37.5 19.3   704 – Lincoln Laboratory ETS, New Mexico MPS 73870
2003 03 03.42114 13 37 12.65 +04 33 40.8 19.5   704 – Lincoln Laboratory ETS, New Mexico MPS 73870
2003 03 03.43420 13 37 12.40 +04 33 44.3 19.9   704 – Lincoln Laboratory ETS, New Mexico MPS 73870
2003 03 09.37820 13 35 05.88 +05 02 37.4 18.7   704 – Lincoln Laboratory ETS, New Mexico MPS 73870
2003 03 09.39132 13 35 05.52 +05 02 41.3 19.2   704 – Lincoln Laboratory ETS, New Mexico MPS 73870
2003 03 09.40490 13 35 05.13 +05 02 45.4 19.5   704 – Lincoln Laboratory ETS, New Mexico MPS 73870
2003 03 09.41856 13 35 04.73 +05 02 49.7 19.4   704 – Lincoln Laboratory ETS, New Mexico MPS 73870
2003 03 09.43184 13 35 04.34 +05 02 53.8 19.5   704 – Lincoln Laboratory ETS, New Mexico MPS 73870
2003 03 11.46978 13 34 08.82 +05 13 14.6 19.7 V 291 – LPL/Spacewatch II MPS 73870
2003 03 11.47687 13 34 08.59 +05 13 16.8 19.7 V 291 – LPL/Spacewatch II MPS 73870
2003 03 11.48835 13 34 08.26 +05 13 20.3 19.6 V 291 – LPL/Spacewatch II MPS 73870
2003 03 13.46276 13 33 08.93 +05 23 30.6 19.7 V 291 – LPL/Spacewatch II MPS 73870
2003 03 13.47646 13 33 08.47 +05 23 34.9 19.9 V 291 – LPL/Spacewatch II MPS 73870
2003 03 13.49322 13 33 07.91 +05 23 40.1 19.7 V 291 – LPL/Spacewatch II MPS 73870
2003 03 27.37238 13 23 55.09 +06 35 06.2 18.5   704 – Lincoln Laboratory ETS, New Mexico MPS 75828
2003 03 27.38632 13 23 54.45 +06 35 10.8 20.1   704 – Lincoln Laboratory ETS, New Mexico MPS 75828
2003 03 27.39966 13 23 53.69 +06 35 15.0 19.0   704 – Lincoln Laboratory ETS, New Mexico MPS 75828
2003 03 27.41225 13 23 53.16 +06 35 17.6 18.9   704 – Lincoln Laboratory ETS, New Mexico MPS 75828
2003 03 27.42466 13 23 52.50 +06 35 21.7 18.9   704 – Lincoln Laboratory ETS, New Mexico MPS 75828
2003 03 30.31188 13 21 33.37 +06 49 12.2 19.4   704 – Lincoln Laboratory ETS, New Mexico MPS 75828
2003 03 30.32412 13 21 32.86 +06 49 15.6 19.4   704 – Lincoln Laboratory ETS, New Mexico MPS 75828
2003 03 30.33807 13 21 32.10 +06 49 19.3 19.1   704 – Lincoln Laboratory ETS, New Mexico MPS 75828
2003 03 31.29571 13 20 44.63 +06 53 46.4 18.8   704 – Lincoln Laboratory ETS, New Mexico MPS 75828
2003 03 31.29943 13 20 44.44 +06 53 46.3 18.2   704 – Lincoln Laboratory ETS, New Mexico MPS 75828
2003 03 31.30003 13 20 44.42 +06 53 47.6 18.9   704 – Lincoln Laboratory ETS, New Mexico MPS 75828
2003 03 31.30726 13 20 44.05 +06 53 48.7 18.8   704 – Lincoln Laboratory ETS, New Mexico MPS 75828
2003 03 31.31155 13 20 43.79 +06 53 49.9 18.8   704 – Lincoln Laboratory ETS, New Mexico MPS 75828
2003 03 31.31215 13 20 43.78 +06 53 50.5 18.6   704 – Lincoln Laboratory ETS, New Mexico MPS 75828
2003 03 31.31890 13 20 43.43 +06 53 52.0 19.1   704 – Lincoln Laboratory ETS, New Mexico MPS 75828
2003 03 31.32398 13 20 43.17 +06 53 53.6 18.7   704 – Lincoln Laboratory ETS, New Mexico MPS 75828
2003 03 31.32458 13 20 43.11 +06 53 54.2 19.6   704 – Lincoln Laboratory ETS, New Mexico MPS 75828
2003 03 31.33051 13 20 42.86 +06 53 56.4 19.6   704 – Lincoln Laboratory ETS, New Mexico MPS 75828
2003 03 31.33603 13 20 42.56 +06 53 56.6 18.9   704 – Lincoln Laboratory ETS, New Mexico MPS 75828
2003 03 31.33663 13 20 42.55 +06 53 57.7 19.3   704 – Lincoln Laboratory ETS, New Mexico MPS 75828
2003 04 01.305070 13 19 53.862 +06 58 20.50 18.93 V 645 – Apache Point-Sloan Digital Sky Survey MPS 136341
2003 04 01.308542 13 19 53.682 +06 58 21.40 19.81   645 – Apache Point-Sloan Digital Sky Survey MPS 136341
2003 04 03.31788 13 18 11.15 +07 07 10.0 18.5   704 – Lincoln Laboratory ETS, New Mexico MPS 75828
2003 04 03.31836 13 18 11.06 +07 07 09.9 18.7   704 – Lincoln Laboratory ETS, New Mexico MPS 75828
2003 04 03.34176 13 18 09.88 +07 07 15.6 18.7   704 – Lincoln Laboratory ETS, New Mexico MPS 75828
2003 04 03.34224 13 18 09.81 +07 07 15.4 18.9   704 – Lincoln Laboratory ETS, New Mexico MPS 75828
2003 04 03.35425 13 18 09.12 +07 07 18.8 18.7   704 – Lincoln Laboratory ETS, New Mexico MPS 75828
2003 04 03.35473 13 18 09.10 +07 07 19.4 19.0   704 – Lincoln Laboratory ETS, New Mexico MPS 75828
2003 04 05.44261 13 16 20.68 +07 15 59.2 19.6   608 – Haleakala-AMOS MPS 75828
2003 04 05.45370 13 16 20.12 +07 16 01.7 19.8   608 – Haleakala-AMOS MPS 75828
2003 04 05.46433 13 16 19.54 +07 16 04.1 20.3   608 – Haleakala-AMOS MPS 75828
2003 04 09.29641 13 12 57.49 +07 30 22.3 18.7   704 – Lincoln Laboratory ETS, New Mexico MPS 75828
2003 04 09.30888 13 12 56.79 +07 30 25.0 19.2   704 – Lincoln Laboratory ETS, New Mexico MPS 75828
2003 04 09.32039 13 12 56.17 +07 30 27.2 19.0   704 – Lincoln Laboratory ETS, New Mexico MPS 75828
2003 04 09.33202 13 12 55.52 +07 30 29.8 19.2   704 – Lincoln Laboratory ETS, New Mexico MPS 75828
2003 04 09.34377 13 12 54.89 +07 30 32.3 19.3   704 – Lincoln Laboratory ETS, New Mexico MPS 75828
2003 04 10.29525 13 12 04.53 +07 33 45.3 18.9   704 – Lincoln Laboratory ETS, New Mexico MPS 75828
2003 04 10.30709 13 12 03.88 +07 33 47.0 19.1   704 – Lincoln Laboratory ETS, New Mexico MPS 75828
2003 04 10.31888 13 12 03.24 +07 33 50.5 18.7   704 – Lincoln Laboratory ETS, New Mexico MPS 75828
